| time (UTC) | temp F | wind direction | speed MPH | gust MPH | rain 1hr in | rain 24hr in | rain mn in | humidity % | barometer mb |
| 20260504050008 | 49 | 252 | 1.0 | 6.0 | 0.00 | 0.00 | 0.00 | 58 | 1014.8 |
| 20260504044515 | 50 | 261 | 0.0 | 3.0 | 0.00 | 0.00 | 0.00 | 57 | 1014.8 |
| 20260504043009 | 50 | 271 | 0.0 | 4.0 | 0.00 | 0.00 | 0.00 | 56 | 1014.8 |
| 20260504041504 | 50 | 320 | 0.0 | 2.0 | 0.00 | 0.00 | 0.00 | 56 | 1014.8 |
| 20260504040105 | 50 | 299 | 0.0 | 3.0 | 0.00 | 0.00 | 0.00 | 55 | 1014.7 |
| 20260504034610 | 50 | 217 | 0.0 | 3.0 | 0.00 | 0.00 | 0.00 | 56 | 1014.6 |
| 20260504033127 | 50 | 216 | 0.0 | 0.0 | 0.00 | 0.00 | 0.00 | 55 | 1014.5 |
| 20260504031603 | 51 | 216 | 1.0 | 5.0 | 0.00 | 0.00 | 0.00 | 53 | 1014.4 |
| 20260504030101 | 52 | 292 | 0.0 | 2.0 | 0.00 | 0.00 | 0.00 | 52 | 1014.4 |
| 20260504024557 | 52 | 269 | 1.0 | 2.0 | 0.00 | 0.00 | 0.00 | 51 | 1014.3 |
| 20260504023104 | 52 | 212 | 0.0 | 2.0 | 0.00 | 0.00 | 0.00 | 50 | 1014.2 |
| 20260504021557 | 53 | 269 | 0.0 | 3.0 | 0.00 | 0.00 | 0.00 | 49 | 1014.4 |
| 20260504020100 | 53 | 301 | 0.0 | 2.0 | 0.00 | 0.00 | 0.00 | 49 | 1014.3 |
| 20260504014555 | 53 | 298 | 0.0 | 0.0 | 0.00 | 0.00 | 0.00 | 48 | 1014.3 |
| 20260504013108 | 54 | 299 | 0.0 | 0.0 | 0.00 | 0.00 | 0.00 | 47 | 1014.0 |
| 20260504011556 | 54 | 299 | 0.0 | 0.0 | 0.00 | 0.00 | 0.00 | 46 | 1013.9 |
| 20260504010110 | 54 | 299 | 0.0 | 2.0 | 0.00 | 0.00 | 0.00 | 45 | 1013.9 |
| 20260504004617 | 55 | 299 | 0.0 | 2.0 | 0.00 | 0.00 | 0.00 | 46 | 1013.7 |
| 20260504003053 | 55 | 299 | 0.0 | 2.0 | 0.00 | 0.00 | 0.00 | 44 | 1013.5 |
| 20260504001601 | 55 | 5 | 0.0 | 1.0 | 0.00 | 0.00 | 0.00 | 44 | 1013.4 |
| 20260504000052 | 56 | 5 | 0.0 | 5.0 | 0.00 | 0.00 | 0.00 | 45 | 1013.4 |
| 20260503234552 | 56 | 330 | 0.0 | 4.0 | 0.00 | 0.00 | 0.00 | 44 | 1013.2 |
| 20260503233051 | 57 | 329 | 0.0 | 2.0 | 0.00 | 0.00 | 0.00 | 43 | 1013.1 |
| 20260503231551 | 58 | 340 | 0.0 | 3.0 | 0.00 | 0.00 | 0.00 | 43 | 1013.0 |
| 20260503230057 | 58 | 292 | 0.0 | 7.0 | 0.00 | 0.00 | 0.00 | 41 | 1013.0 |
| 20260503224549 | 59 | 53 | 0.0 | 3.0 | 0.00 | 0.00 | 0.00 | 41 | 1012.9 |
| 20260503223056 | 60 | 313 | 0.0 | 5.0 | 0.00 | 0.00 | 0.00 | 38 | 1013.0 |
| 20260503221553 | 61 | 279 | 1.0 | 5.0 | 0.00 | 0.00 | 0.00 | 36 | 1013.0 |
| 20260503220049 | 62 | 305 | 1.0 | 7.0 | 0.00 | 0.00 | 0.00 | 36 | 1012.9 |
| 20260503214547 | 62 | 315 | 0.0 | 8.0 | 0.00 | 0.00 | 0.00 | 37 | 1013.0 |
| 20260503213100 | 63 | 196 | 0.0 | 5.0 | 0.00 | 0.00 | 0.00 | 36 | 1013.0 |
| 20260503211546 | 63 | 278 | 1.0 | 3.0 | 0.00 | 0.00 | 0.00 | 35 | 1012.8 |
| 20260503210055 | 63 | 67 | 1.0 | 4.0 | 0.00 | 0.00 | 0.00 | 34 | 1012.9 |
| 20260503204551 | 64 | 309 | 1.0 | 11.0 | 0.00 | 0.00 | 0.00 | 36 | 1012.8 |
| 20260503203043 | 63 | 343 | 1.0 | 6.0 | 0.00 | 0.00 | 0.00 | 38 | 1012.9 |
| 20260503201543 | 61 | 320 | 3.0 | 11.0 | 0.00 | 0.00 | 0.00 | 37 | 1013.1 |
| 20260503200046 | 62 | 257 | 0.0 | 3.0 | 0.00 | 0.00 | 0.00 | 38 | 1013.2 |
| 20260503194546 | 63 | 236 | 0.0 | 9.0 | 0.00 | 0.00 | 0.00 | 34 | 1013.5 |
| 20260503193050 | 63 | 316 | 1.0 | 5.0 | 0.00 | 0.00 | 0.00 | 35 | 1013.6 |
| 20260503191538 | 63 | 341 | 1.0 | 5.0 | 0.00 | 0.00 | 0.00 | 35 | 1013.9 |
| 20260503190038 | 61 | 9 | 2.0 | 5.0 | 0.00 | 0.00 | 0.00 | 39 | 1014.0 |
| 20260503184546 | 59 | 333 | 1.0 | 12.0 | 0.00 | 0.00 | 0.00 | 38 | 1014.2 |
| 20260503183047 | 62 | 320 | 3.0 | 8.0 | 0.00 | 0.00 | 0.00 | 35 | 1014.3 |
| 20260503181532 | 61 | 337 | 2.0 | 6.0 | 0.00 | 0.00 | 0.00 | 38 | 1014.4 |
| 20260503180037 | 61 | 348 | 1.0 | 4.0 | 0.00 | 0.00 | 0.00 | 40 | 1014.3 |
| 20260503174527 | 59 | 321 | 1.0 | 4.0 | 0.00 | 0.00 | 0.00 | 41 | 1014.5 |
| 20260503173037 | 58 | 301 | 1.0 | 8.0 | 0.00 | 0.00 | 0.00 | 43 | 1014.6 |
| 20260503171525 | 58 | 344 | 2.0 | 6.0 | 0.00 | 0.00 | 0.00 | 40 | 1014.7 |
| 20260503081512 | 42 | 32 | 0.0 | 0.0 | 0.00 | 0.00 | 0.00 | 74 | 1012.7 |
| 20260503071511 | 42 | 312 | 0.0 | 2.0 | 0.00 | 0.01 | 0.00 | 75 | 1012.6 |